Regional Weather Roundup
Issued by NWS Pendleton, OR

Home | Current Version | Previous Version | Text Only | Print | Product List | Glossary On
Versions: 1 2 3 4 5 6 7 8 9 10 11 12 13 14 15 16 17 18 19 20 21 22 23 24 25 26 27 28 29 30 31 32 33 34 35 36 37 38 39 40 41 42 43 44 45 46 47 48 49 50
000
ASUS46 KPDT 261825
RWRPDT
PENDLETON REGIONAL WEATHER ROUNDUP
NATIONAL WEATHER SERVICE PENDLETON OREGON
1000 AM PST MON JAN 26 2015

NOTE: FAIR INDICATES FEW OR NO CLOUDS BELOW 12,000 FEET WITH NO
SIGNIFICANT WEATHER AND/OR OBSTRUCTIONS TO VISIBILITY.

# INDICATES UNOFFICIAL STATION AND DATA

WAZ520-261910-
EAST SLOPES OF WASHINGTON CASCADES

CITY            SKY/WX      TMP DP  RH  WIND    PRES   REMARKS
#BULLFROG 2SW   N/A         36  36  100 N1      27.64F
#BUMPING DAM    N/A         27  N/A N/A CALM    N/A
#CLE ELUM HS    N/A         33  31  92  CALM    30.02F
#CLE ELUM LAKE  N/A         39  34  82  CALM    30.04F
#CLIFFDEL 2NW   N/A         31  30  96  CALM    N/A
#GLENWOOD       N/A         32  31  96  CALM    30.10F
#MANASTASH CYN  N/A         38  33  82  CALM    30.01R
#NELSON         N/A         31  30  96  CALM    30.13F
#NELSON 3SW     N/A         33  32  96  CALM    30.30F
#NILE           N/A         37  33  85  W2      29.35S
#RONALD 2NW     N/A         35  27  72  CALM    29.90F
#SNOWDEN        N/A         36  32  85  CALM    N/A
#TEANAWAY 4NE   N/A         30  30  100 CALM    N/A
#TROUT LAKE 1NE N/A         38  37  96  CALM    30.07F
$$

WAZ521-261910-
SIMCOE HIGHLANDS

CITY            SKY/WX      TMP DP  RH  WIND    PRES   REMARKS
#BICKLETON HS   N/A         58  31  36  W7      N/A
#CENTERVILLE 4W N/A         37  36  96  N2      29.81S
#GOLDENDALE     N/A         33  33  100 CALM    N/A
#GOLDENDALE 1NE N/A         35  35  100 CALM    N/A
#GOLDENDALE 1S  N/A         33  32  96  CALM    30.04S
#GOLDENDALE 5WNWN/A         35  34  96  NE1     30.07F
#GOODNOE HILLS  N/A         36  33  89  W2      N/A
#LYLE 6NE       N/A         36  36  100 CALM    30.07R
$$

WAZ026-261910-
KITTITAS VALLEY

CITY            SKY/WX      TMP DP  RH  WIND    PRES   REMARKS
ELLENSBURG AP   FOG         33  30  89  CALM    30.07S VSB<1/4
6HR MIN TEMP:   32; 6HR MAX TEMP:   34;

#ELLENSBURG CWU N/A         32  31  96  CALM    30.08R
#ELLENSBURG 3NE N/A         29  28  96  CALM    30.07R
#KITTITAS 4N    N/A         34  32  92  CALM    28.38R
#KITTITAS 3S    N/A         32  31  96  CALM    30.11S
#THORP 6N       N/A         35  33  92  N5      30.10F
$$

WAZ027-261910-
YAKIMA VALLEY

CITY            SKY/WX      TMP DP  RH  WIND    PRES   REMARKS
YAKIMA AIRPORT  FOG         35  33  92  CALM    30.11R VSB 1/4
6HR MIN TEMP:   33; 6HR MAX TEMP:   36;

YAKIMA-VAGABOND N/A         34  34  100 S1      30.08S FOG
#DONALD 2NE     N/A         36  36  100 CALM    28.95S
#GRANDVIEW      N/A         36  35  96  CALM    30.16R
#MABTON         N/A         36  36  100 CALM    30.11R
#MOXEE 2E       N/A         39  39  100 CALM    30.12
#NACHES 2SW     N/A         39  35  85  E1      30.05S
#OUTLOOK DOT    N/A         N/A N/A N/A W1      N/A
#SELAH 8E       N/A         42  42  100 CALM    N/A
#TERRACE HTS    N/A         33  32  96  CALM    30.10S
#TOPPENISH      N/A         36  35  96  CALM    30.05S
#WAPATO 4NE     N/A         36  36  100 CALM    28.95S
#WEST VALLEY    N/A         32  31  96  CALM    30.13R
#W YAKIMA       N/A         33  32  96  E1      30.14R
#WHITE SWAN 5E  N/A         35  34  96  CALM    30.14S
#WILEY CITY 3W  N/A         32  29  89  CALM    30.11R
$$

WAZ028-261910-
LOWER COLUMBIA BASIN...WASHINGTON

CITY            SKY/WX      TMP DP  RH  WIND    PRES   REMARKS
HANFORD         FOG         33  33  100 N3      30.11R VSB<1/4
6HR MIN TEMP:   32; 6HR MAX TEMP:   32;

PASCO           CLOUDY      39  39  100 CALM    30.13R FOG
6HR MIN TEMP:   38; 6HR MAX TEMP:   39;

PROSSER AWOS    N/A         37  37  100 W3      30.15R
RICHLAND AWOS   CLOUDY      39  N/A N/A W6      30.14R
#BASIN CITY 5SW N/A         38  37  96  CALM    30.11
#BENTON CITY    N/A         36  35  96  W6      30.04R
#CONNELL 5N     N/A         32  32  100 CALM    30.14R
#CONNELL 5NW    N/A         32  32  100 CALM    30.11R
#ELTOPIA 6NW    N/A         36  36  100 CALM    29.07R
#KAHLOTUS       N/A         35  34  96  CALM    30.12S
#KENNEWICK      N/A         36  36  100 N1      27.64F
#KENNEWICK 3S   N/A         37  36  96  CALM    30.14S
#PASCO-BROADMOORN/A         40  38  92  W1      30.04R
#PATERSON       N/A         37  36  96  SW2     30.13R
#PROSSER        N/A         36  35  96  NE1     30.14R
#SAGEMOOR 2W    N/A         38  37  96  CALM    29.98R
#TOUCHET 2S     N/A         37  36  96  NE1     30.14R
#WEST PASCO     N/A         40  38  92  CALM    30.09R
$$

WAZ029-261910-
FOOTHILLS OF THE BLUES...WASHINGTON

CITY            SKY/WX      TMP DP  RH  WIND    PRES   REMARKS
WALLA WALLA AP  FOG         34  33  96  E6      30.09R VSB 1/4
#DAYTON SCHOOL  N/A         37  33  85  W5      30.09R
#LOWDEN 2SE     N/A         36  35  96  E1      30.09R
#PLEASANT VIEW 1N/A         33  32  96  CALM    30.15R
#PRESCOTT       N/A         35  34  96  CALM    30.13R
#SUDBURY        N/A         40  N/A N/A CALM    N/A
#WHITMAN COLLEGEN/A         34  34  100 CALM    30.19R
#WAITSBURG 5S   N/A         32  31  96  E7      30.22R
#WAITSBURG 8N   N/A         43  27  53  E7      29.91S
#WALLA WALLA 5E N/A         34  33  96  NE3     N/A
#WALLA WALLA U  N/A         36  35  96  CALM    30.14R
#WHITMAN MISSIONN/A         36  35  96  CALM    30.15R
$$

WAZ030-261910-
BLUE MOUNTAINS...WASHINGTON

CITY            SKY/WX      TMP DP  RH  WIND    PRES   REMARKS
#DIXIE 5SE      N/A         66  28  24  SW8     30.14S
#SKI BLUEWOOD   N/A         50  34  54  SW7     30.11R
$$

ORZ009-041-WAZ024-261910-
COLUMBIA RIVER GORGE

CITY            SKY/WX      TMP DP  RH  WIND    PRES   REMARKS
HOOD RIVER AP   CLOUDY      41  41  100 CALM    30.11S
THE DALLES AP   CLOUDY      42  38  86  CALM    30.12S
6HR MIN TEMP:   40; 6HR MAX TEMP:   42;

#ARLINGTON AIRPON/A         36  35  96  CALM    30.02S
#ARLINGTON HS   N/A         39  38  96  S1      30.05S
#CELILO DOT     N/A         42  36  79  CALM    N/A
#LYLE           N/A         42  40  93  CALM    30.14S
#MOSIER 1S      N/A         41  40  96  CALM    30.09F
#MURDOCK        N/A         42  41  96  CALM    30.15S
#RUFUS DOT      N/A         40  36  85  CALM    N/A

$$

ORZ510-261910-
NORTH CENTRAL OREGON

CITY            SKY/WX      TMP DP  RH  WIND    PRES   REMARKS
#CHENOWITH 1W   N/A         36  36  100 N5      N/A
#COW CYN RST AREN/A         57  35  43  SW2     N/A
#DUFUR 9E       N/A         34  33  96  W3      30.12R
#KENT DOT       N/A         54  34  47  S7      N/A
#MAUPIN SCHOOL  N/A         39  37  92  CALM    30.10S
#MORO SCHOOL    N/A         37  37  100 NW3     30.07F
#SHANIKO 5WSW   N/A         55  28  35  SE14    N/A
#SHANIKO 4NW    N/A         57  33  40  S14     30.05S
#TYGH VALLEY 2NEN/A         38  37  96  CALM    30.09S
#WAPANITIA AIRPON/A         36  35  96  CALM    30.09F
#WASCO DOT      N/A         37  35  92  NW1     N/A
#WASCO AIRPORT  N/A         36  34  92  NW1     N/A
#WASCO 5NE      N/A         35  34  96  CALM    30.11S
$$

ORZ511-261910-
CENTRAL OREGON

CITY            SKY/WX      TMP DP  RH  WIND    PRES   REMARKS
BEND AIRPORT    PTCLDY      54  32  43  S3      30.12R
PRINEVILLE AP   SUNNY       57  36  45  SE9     30.11S
REDMOND AIRPORT PTCLDY      57  34  42  CALM    30.09R
6HR MIN TEMP:   39; 6HR MAX TEMP:   57;

#BEND 1SW       N/A         50  36  58  W3      N/A
#BEND-AWBREY    N/A         56  35  45  S6      30.01R
#BEND-KIM LN    N/A         56  37  49  SW6     30.08R
#CROOKED RVR RANN/A         60  37  42  S2      30.01S
#CULVER         N/A         60  34  37  E9      30.01S
#LAKE BILLY CHINN/A         57   8  14  W1      30.14F
#POWELL BUTTE 3EN/A         53  34  48  E9      N/A
#POWELL BUTTE   N/A         60  36  41  N6      29.72R
#PRINEVILLE 3N  N/A         51  41  68  NW1     30.06F

$$


ORZ509-261910-
EAST SLOPES OF OREGON CASCADES

CITY            SKY/WX      TMP DP  RH  WIND    PRES   REMARKS
#BLUE BOX PASS  N/A         57   3  11  CALM    N/A
#CAMP SHERMAN   N/A         37  34  89  CALM    30.15F
#LA PINE 4NW    N/A         43  34  70  CALM    30.18R
#MT BACHELOR-MIDN/A         47  12  24  E14G25  N/A    WCI 41
#SISTERS AIRPOR N/A         47  44  89  CALM    30.17S
#SISTERS ODOT   N/A         46  N/A N/A CALM    N/A
#SISTERS 1NW    N/A         41  36  82  S5      N/A
#SISTERS 3N     N/A         46  39  76  CALM    30.10R
#SUNRIVER       N/A         46  36  68  S2      30.04R
#TUMALO 3W      N/A         55  37  51  CALM    29.89R
#WANOGA BUTTE D N/A         46  28  49  W8      N/A

$$

ORZ044-261910-
LOWER COLUMBIA BASIN...OREGON

CITY            SKY/WX      TMP DP  RH  WIND    PRES   REMARKS
HERMISTON       CLOUDY      37  36  96  CALM    30.11S FOG
#BOARDMAN 3W    N/A          0   0  100 W3      29.85S
#BOARDMAN 8SW   N/A         37  36  96  W1      30.13S
#ECHO 8SW       N/A         37  37  100 CALM    30.08S
#IONE SCHOOL    N/A         35  26  69  CALM    30.08F
#IRRIGON 4NW    N/A         38  38  100 S5      N/A
#UMATILLA SCHOOLN/A         37  37  100 CALM    30.16R
#UMATILLA       N/A         39  36  89  CALM    30.10R
$$

ORZ507-261910-
NORTHERN FOOTHILLS OF THE BLUES

CITY            SKY/WX      TMP DP  RH  WIND    PRES   REMARKS
PENDLETON AIRPT FOG         34  34  100 NW9     30.07S VSB<1/4
6HR MIN TEMP:   32; 6HR MAX TEMP:   34;

#ADAMS 3WNW     N/A         38  35  89  SW6     30.09R
#CAYUSE         N/A         32  31  96  W5      30.09R
#HELIX SCHOOL   N/A         41  37  86  CALM    30.06S
#HELIX 3N       N/A         48  41  77  N6      30.03R
#HOLDMAN 5SE    N/A         35  34  96  CALM    30.08S
#HOLDMAN 6E     N/A         32  31  96  CALM    29.91S
#M-F FERNDALE   N/A         35  34  96  CALM    30.10R
#M-F GROVE ELEM N/A         33  31  92  CALM    30.08R
#M-FREEWATER 5SEN/A         33  32  96  CALM    30.07R
#PENDLETON DNTN N/A         37  34  89  CALM    28.88S
#PDT AQUATIC CTRN/A         37  34  89  NW5     30.07S
#PENDLETON 5NE  N/A         35  34  96  CALM    30.04R
#PDT SUNRIDGE   N/A         35  34  96  CALM    30.10R
#PENDLETON 7NW  N/A         35  33  92  CALM    27.53S
#PILOT ROCK     N/A         34  31  89  N1      30.09R
#TUTUILLA       N/A         35  34  96  CALM    30.10R
#UMAPINE 2E     N/A         36  35  96  E1      30.09R
#WESTON SCHOOL  N/A         36  30  79  NE2     30.06R

$$

ORZ508-261910-
SOUTHERN FOOTHILLS OF THE BLUES

CITY            SKY/WX      TMP DP  RH  WIND    PRES   REMARKS
LEXINGTON       FOG         36  36  100 SE6     30.08F VSB<1/4
#AJAX           N/A         38  33  82  CALM    29.98S
#CONDON SCHOOL  N/A         59  38  45  CALM    30.00F
#CONDON 5W      N/A         58  35  42  S7      30.02F
#FOSSIL SCHOOL  N/A         63  36  36  E7      30.02S
#HEPPNER EOC    N/A         35  34  96  N1      30.03R
#HEPPNER 4NE    N/A         58  37  45  SW2     30.00S
#LEXINGTON 2SE  N/A         35  33  92  CALM    30.02F
#MIKKALO        N/A         35  35  100 NE1     30.06F
#OLEX 4N        N/A         35  34  96  SW1     30.09S
#RUGGS 5NE      N/A         66  36  33  N7      30.20R
#RUGGS 2SW      N/A         60  35  39  S17G28  29.99S

$$

ORZ502-503-261910-
BLUE MOUNTAINS

CITY            SKY/WX      TMP DP  RH  WIND    PRES   REMARKS
MEACHAM         SUNNY       49  34  56  CALM    30.12R
6HR MIN TEMP:   41; 6HR MAX TEMP:   49;

#BATTLE MTN DOT N/A         49  35  58  SE13    N/A    WCI 44
#HARDMAN 10S    N/A         47  33  58  S6      30.20S
#HEPPNER 15SE   N/A         61  32  33  CALM    30.00R
#LADD CYN SMT   N/A         37  30  75  SE31    N/A    WCI 24
#LADD CREEK ODOTN/A         42  30  62  S7      N/A
#LONG CREEK HS  N/A         56  39  53  CALM    30.06F
#N POWDER DOT   N/A         38  33  82  W3      N/A
#PIKES PEAK     N/A         62  30  30  S21G35  27.99S
#TOLLGATE       N/A         46  33  60  SW5     30.06R
#TROY SCHOOL    N/A         39  36  89  SW3     30.09F
#UKIAH          N/A         39  37  92  CALM    30.24F
#WESTON 4E      N/A         52  36  54  E14     29.98R
$$

ORZ505-261910-
JOHN DAY BASIN

CITY            SKY/WX      TMP DP  RH  WIND    PRES   REMARKS
JOHN DAY        SUNNY       55  32  41  E9      30.16F
#JOHN DAY KJDY  N/A         47  31  53  NE3     30.19F
#DAYVILLE SCHOOLN/A         57  36  45  SE7     30.09F
#MONUMENT HS    N/A         47  34  60  S3      30.14F
#MT. VERNON 5SE N/A         57  36  45  E3      30.11S
#WINLOCK        N/A         58  33  39  SW7     30.17S
$$

ORZ506-261910-
OCHOCO AND JOHN DAY HIGHLANDS

CITY            SKY/WX      TMP DP  RH  WIND    PRES   REMARKS
#HORSE RIDGE DO N/A         53  32  45  SE10    N/A
#KEYES SMT DOT  N/A         58  31  36  SE8     N/A
#PAULINA SCHOOL N/A         35  33  92  CALM    30.15F
#PINE MTN OBS   N/A         49  27  42  S12     N/A    WCI 44
#PRAIRIE CITY   N/A         51  31  46  NE1     30.15F
#SENECA         N/A         42  N/A N/A W6      N/A
#SENECA 9NW     N/A         35  34  96  CALM    30.28F
$$

ORZ049-261910-
GRANDE RONDE VALLEY

CITY            SKY/WX      TMP DP  RH  WIND    PRES   REMARKS
LA GRANDE       SUNNY       46  30  53  S33G47  30.18F WCI 36
#COVE           N/A         47  41  79  NW6     30.03S
#COVE SCHOOL    N/A         44  38  79  NW2     30.12F
#COVE 6NW       N/A         44  35  70  S9      30.27F
#ELGIN 3N       N/A         48  33  56  SW8     29.98S
#ELGIN 1E       N/A         45  36  70  S7      N/A
#IMBLER SCHOOL  N/A         46  36  68  S21G33  30.13F WCI 38
#ISLAND CITY 4N N/A         40  40  100 CALM    30.03R
#LADD CYN DOT   N/A         43  33  67  S37G47  N/A    WCI 32
#UNION 1S       N/A         44  36  73  S15     30.17R WCI 37
$$

ORZ050-261910-
WALLOWA COUNTY

CITY            SKY/WX      TMP DP  RH  WIND    PRES   REMARKS
JOSEPH AIRPORT  FOG         32  32  100 CALM    30.19S VSB 1/4
#ENTERPRISE AP  N/A         31  29  92  CALM    30.11S
#ENTERPRISE HS  N/A         32  31  96  CALM    30.18S
#IMNAHA SCHOOL  N/A         48  39  71  N7      30.12R
#IMNAHA 10S     N/A         61  35  38  SW15G31 30.11R
#JOSEPH 3N      N/A         31  31  100 CALM    30.20R
#JOSEPH 3W      N/A         34  30  85  CALM    29.98S
#LOSTINE        N/A         32  31  96  SE1     30.11S
#MT HOWARD 8000 N/A         49  20  31  S16G41  30.24R WCI 43
#PROMISE 1S     N/A         41  35  79  W1      30.31F
#SHEEP RDG 7000 N/A         53  22  29  CALM    29.98R
#WALLOWA SCHOOL N/A         32  31  96  CALM    31.28F



$$



USA.gov is the U.S. government's official web portal to all federal, state and local government web resources and services.